COSMOS 1285 DEB, 27800

Orbit data source: Space-Track

COSMOS 1285 DEB, 27800 is space debris originally from a launch on Tue, 04 Aug 1981 UTC launched from the Plesetsk Missile And Space Complex (PKMTR). Debris objects in space refer to the collection of defunct objects orbiting the Earth. Examples of debris include non-operational satellites, rocket bodies, and fragments generated from explosions, collisions, or faulty payload assembly.

Loading next visibility...
Identifier
27800, 1981-071P
Orbit
Molniya
Country
Flag of CISCIS
Related business
Manufacturer
Unknown
Mission
Spacecraft
Bus & Motor
Unknown
Mass
Unknown
Launch date (UTC)
1981-08-04 (44 years ago)
Launch vehicle
Unknown
Launch site
Plesetsk Missile And Space Complex (PKMTR)
Object type
Payload
Rocket body
Debris
Shape & HBR
Unknown shape, 0.5 m
Radar Cross Section
Medium (>0.1 m² and <1 m²)

Expand to show TLE details & history
Last TLE update: 5 days ago

TLE from 5 days ago
0 COSMOS 1285 DEB
1 27800U 81071P   25294.22086076 -.00000580  00000-0  00000-0 0  9991
2 27800  64.3990  95.1380 7102389  36.0245 355.3928  1.97650324188689
Epoch: 2025-10-21T05:18Z
TLE epoch observation values (Epoch: 2025-10-21T05:18:02.369Z)
Latitude
0.00006°
Longitude
-14.36805°
Altitude
2,074.799 km
Speed
8.914 km/s
True Right ascension
06h 20m 12s
True Declination
0° 00' 00"
Sunlit
Object was in daylight at epoch
Visualization orbit readout
Latitude
Unknown
Longitude
Unknown
Altitude
Unknown
Speed
Unknown
Apparent Right ascension
Unknown
Apparent Declination
Unknown
Sunlit
N/A
Visualization observer readout
Local Sidereal Time
20:05:00
Azimuth
Unknown
Elevation
Unknown
Doppler factor
Unknown
Orbital elements
Apogee altitude
39,489.93 km
Perigee altitude
1,393.164 km
Semi-major axis
26,819.684 km
Eccentricity
0.71024
Inclination
64.399°
RAAN
95.138°
Arg. of periapsis
36.0245°
True anomaly
323.5352°
Mean anomaly
355.3928°
Eccentric anomaly
344.55668°
Mean motion
0.49415 °/min
Orbital period
728.52 mins
BSTAR
0
Loading maneuver chart data...
Computing Atmospheric mass density...
Loading historical data...
Loading historical data...
Loading historical data...
Loading historical data...
Loading historical data...
Loading historical data...
Loading historical data...

Documentation

Showing up to 5 results
|